Regional Weather Roundup
Issued by NWS

Home | Current Version | Previous Version | Text Only | Print | Product List | Glossary On
Versions: 1 2 3 4 5 6 7 8 9 10 11 12 13 14 15 16 17 18 19 20 21 22 23 24 25 26 27 28 29 30 31 32 33 34 35 36 37 38 39 40 41 42 43 44 45 46 47 48 49 50
000
ASUS43 KFSD 271010
RWRSD

WEATHER ROUNDUP FOR SOUTH DAKOTA
NATIONAL WEATHER SERVICE SIOUX FALLS SD
400 AM CST THU NOV 27 2014

NOTE: "FAIR" INDICATES FEW OR NO CLOUDS BELOW 12,000 FEET WITH NO
SIGNIFICANT WEATHER AND/OR OBSTRUCTIONS TO VISIBILITY.


SDZ001>005-009-010-012>017-271100-
NORTHWEST AND NORTH CENTRAL SOUTH DAKOTA

CITY           SKY/WX    TMP DP  RH WIND       PRES   REMARKS
BUFFALO          N/A     20  16  84 SE13      30.13S WCI   7
FAITH            N/A     13  10  88 SE15      30.27F WCI  -3
MOBRIDGE       CLOUDY     2  -2  83 E8        30.40S WCI -12
$$

SDZ012>016-024>037-041>051-057-063-072>074-271100-
SOUTHWEST AND SOUTH CENTRAL SOUTH DAKOTA

CITY           SKY/WX    TMP DP  RH WIND       PRES   REMARKS
RAPID CTY ARPT CLOUDY    20  18  92 SE7       30.20F WCI  11
PIERRE         CLOUDY    10   7  87 E10       30.40F WCI  -4
CUSTER         MOCLDY    23  19  85 SW6       30.10F WCI  16
ELLSWORTH AFB  CLOUDY    20  18  93 SE6       30.19F WCI  12
PHILIP         CLOUDY    20  14  77 E9        30.32F WCI   9
PINE RIDGE     CLOUDY    29  25  85 S6        30.20F WCI  23
SPEARFISH      MOCLDY    19  18  93 CALM      30.13F FOG
WINNER         CLOUDY    17   9  70 SE14      30.38F WCI   3
$$

SDZ004>011-016>023-039-040-271100-
NORTHEAST SOUTH DAKOTA

CITY           SKY/WX    TMP DP  RH WIND       PRES   REMARKS
ABERDEEN       PTCLDY   -10 -16  74 N3        30.52F
WATERTOWN      PTCLDY   -12 -16  82 CALM      30.45F
SISSETON         N/A    -12 -16  82 NW5       30.53S WCI -24
$$

SDZ017-020-022-023-036>040-048>070-271100-
SOUTHEAST SOUTH DAKOTA

CITY           SKY/WX    TMP DP  RH WIND       PRES   REMARKS
SIOUX FALLS    PTCLDY    -2  -8  76 W3        30.50R
HURON          PTCLDY    -5 -10  79 CALM      30.52F
CHAMBERLAIN    CLOUDY    11   4  74 SE8       30.44F WCI  -1
MITCHELL       PTCLDY     2  -2  83 NE5       30.52F WCI  -8
YANKTON        CLOUDY    10   3  72 N6        30.52S WCI   1
$$

ABBREVIATIONS USED IN REMARKS
   TC - TEMPERATURE IN CELSIUS
  WCI - WIND CHILL INDEX
   HX - HEAT INDEX
  VSB - VISIBILITY



USA.gov is the U.S. government's official web portal to all federal, state and local government web resources and services.